This is the latest recevied weather packets stored in our database for station/object HASTNG-WX. If no packets are shown the sender has not sent any weather packets the latest 10 day(s).
| Time | Temp. | Humidity | Pressure | Rain* | Wind** | Luminosity | Snow |
|---|---|---|---|---|---|---|---|
| 1777527928 | 5° C | 91% | 984.7 hPa | 0 mm | - | - | - |
| 1777527048 | 5° C | 92% | 984.9 hPa | 0 mm | - | - | - |
| 1777526128 | 5° C | 92% | 984.9 hPa | 0.25 mm | - | - | - |
| 1777525257 | 5° C | 92% | 984.9 hPa | 0.25 mm | - | - | - |
| 1777524328 | 5° C | 93% | 984.7 hPa | 0.76 mm | - | - | - |
| 1777523447 | 5.56° C | 91% | 985.1 hPa | 0.76 mm | - | - | - |
| 1777522527 | 5.56° C | 91% | 985.1 hPa | 0 mm | - | - | - |
| 1777521659 | 5.56° C | 91% | 985.1 hPa | 0 mm | - | - | - |
| 1777520728 | 5.56° C | 90% | 984.4 hPa | 0 mm | - | - | - |
| 1777519846 | 5.56° C | 89% | 984 hPa | 0 mm | - | - | - |
| 1777518928 | 6.11° C | 89% | 984.1 hPa | 0 mm | - | - | - |
| 1777518057 | 6.11° C | 89% | 984.1 hPa | 0 mm | - | - | - |
| 1777517128 | 6.11° C | 89% | 984.1 hPa | 0 mm | - | - | - |
| 1777516242 | 6.11° C | 87% | 985 hPa | 0 mm | - | - | - |
| 1777515327 | 6.67° C | 87% | 985 hPa | 0 mm | - | - | - |
| 1777514453 | 6.67° C | 87% | 985 hPa | 0 mm | - | - | - |
| 1777513527 | 6.67° C | 89% | 984.1 hPa | 0 mm | - | - | - |
| 1777512641 | 7.22° C | 89% | 984.1 hPa | 0 mm | - | - | - |
| 1777511729 | 6.67° C | 89% | 984.1 hPa | 0 mm | - | - | - |
| 1777510852 | 7.22° C | 89% | 984.1 hPa | 0 mm | - | - | - |
| 1777509928 | 7.22° C | 86% | 983.6 hPa | 0 mm | - | - | - |
| 1777509042 | 7.22° C | 90% | 984.1 hPa | 0 mm | - | - | - |
| 1777508129 | 7.22° C | 90% | 984.1 hPa | 0 mm | - | - | - |
| 1777507253 | 7.78° C | 90% | 984.1 hPa | 0 mm | - | - | - |
| 1777506329 | 7.78° C | 89% | 983.3 hPa | 0.25 mm | - | - | - |
* Rain latest hour (hover to see other rain measurements)
** Current wind speed in m/s (hover to see current wind gust speed)